Date String (YYYY-MM-DD hh:mm:ss) UTC,Instrument flags,Ambient pressure (hPa),Sample flow (lpm),Bypass flow (lpm),Sample temperature (°C),Ambient temperature (°C),ASC tube jacket temperature (°C),LED temperature (°C),Box temperature (°C),Sample RH (%),Span deviation,Mass concentration (μg/m³),Mass concentration (μg/m³),Mass concentration (μg/m³)
DateTimeUTC,F1_M11,P_M11,Q1_M11,Q2_M11,T1_M11,T2_M11,T3_M11,T4_M11,T5_M11,U1_M11,ZSPAN_M11,X0_M11,X2_M11,X1_M11
2022-03-03 20:00:00,,0825.4,5.01,0.00,29.6,29.0,00.0,38.4,31.4,09.2,-001.7,0011.79,0006.42,0005.94
2022-03-03 20:01:00,,0825.4,5.02,0.00,29.6,29.0,00.0,38.5,31.4,09.2,0000.8,0011.10,0006.34,0005.88
2022-03-03 20:02:00,,0825.4,4.98,0.00,29.6,29.0,00.0,38.5,31.5,09.1,-002.5,0010.94,0006.30,0005.84
2022-03-03 20:03:00,,0825.4,5.00,0.00,29.7,29.0,00.0,38.5,31.5,09.0,-002.5,0010.81,0006.26,0005.77
2022-03-03 20:04:00,,0825.4,5.01,0.00,29.7,29.0,00.0,38.5,31.5,09.0,-003.1,0010.60,0006.17,0005.70
2022-03-03 20:05:00,,0825.4,4.99,0.00,29.7,29.1,00.0,38.5,31.5,08.5,-003.4,0010.46,0006.05,0005.61
2022-03-03 20:06:00,,0825.3,4.99,0.00,29.7,29.1,00.0,38.5,31.5,08.5,-003.3,0010.44,0005.94,0005.53
2022-03-03 20:07:00,,0825.4,5.01,0.00,29.7,29.1,00.0,38.6,31.5,08.5,-003.0,0010.67,0005.89,0005.46
2022-03-03 20:08:00,,0825.3,5.00,0.00,29.7,29.1,00.0,38.6,31.5,08.5,-002.9,0010.94,0005.84,0005.39
2022-03-03 20:09:00,,0825.3,4.99,0.00,29.7,29.1,00.0,38.6,31.5,08.4,-002.7,0011.65,0005.76,0005.31
2022-03-03 20:10:00,,0825.3,5.00,0.00,29.8,29.2,00.0,38.6,31.5,08.0,-002.5,0011.72,0005.62,0005.20
2022-03-03 20:11:00,,0825.3,5.01,0.00,29.8,29.2,00.0,38.6,31.6,07.9,-002.8,0011.09,0005.50,0005.09
2022-03-03 20:12:00,,0825.2,4.99,0.00,29.8,29.2,00.0,38.6,31.6,07.8,-002.8,0011.25,0005.40,0004.98
2022-03-03 20:13:00,,0825.2,4.99,0.00,29.8,29.2,00.0,38.7,31.6,08.1,-002.5,0010.87,0005.27,0004.88
2022-03-03 20:14:00,,0825.2,5.01,0.00,29.8,29.2,00.0,38.7,31.6,07.9,-002.3,0010.54,0005.17,0004.80
2022-03-03 20:15:00,,0825.2,4.99,0.00,29.8,29.2,00.0,38.7,31.6,07.8,-001.4,0010.57,0005.12,0004.72
2022-03-03 20:16:00,,0825.2,4.99,0.00,29.8,29.2,00.0,38.7,31.6,07.8,-002.2,0010.48,0005.03,0004.64
2022-03-03 20:17:00,,0825.3,5.01,0.00,29.9,29.2,00.0,38.7,31.7,07.5,-003.1,0010.58,0004.96,0004.57
2022-03-03 20:18:00,,0825.2,4.99,0.00,29.9,29.3,00.0,38.7,31.7,07.3,-003.7,0010.86,0004.85,0004.47
2022-03-03 20:19:00,,0825.2,4.99,0.00,29.9,29.3,00.0,38.7,31.7,07.2,-004.0,0010.91,0004.74,0004.37
2022-03-03 20:20:00,,0825.2,5.00,0.00,29.9,29.3,00.0,38.8,31.7,07.6,-004.3,0010.01,0004.66,0004.30
2022-03-03 20:21:00,,0825.2,5.02,0.00,29.9,29.3,00.0,38.8,31.7,07.5,-004.7,0009.85,0004.68,0004.29
2022-03-03 20:22:00,,0825.2,4.98,0.00,29.9,29.3,00.0,38.8,31.7,07.7,-004.4,0009.84,0004.68,0004.29
2022-03-03 20:23:00,,0825.2,5.00,0.00,30.0,29.4,00.0,38.8,31.8,08.1,-004.4,0010.40,0004.67,0004.29
2022-03-03 20:24:00,,0825.2,5.00,0.00,30.0,29.4,00.0,38.8,31.8,08.1,-003.5,0010.95,0004.72,0004.31
2022-03-03 20:25:00,,0825.2,5.00,0.00,30.0,29.4,00.0,38.9,31.8,08.0,0000.0,0011.52,0004.74,0004.31
2022-03-03 20:26:00,,0825.2,4.99,0.00,30.0,29.4,00.0,38.9,31.9,08.1,-002.2,0011.85,0004.75,0004.33
2022-03-03 20:27:00,,0825.2,5.01,0.00,30.1,29.5,00.0,38.9,31.9,08.0,-004.1,0012.44,0004.80,0004.37
2022-03-03 20:28:00,,0825.1,5.00,0.00,30.1,29.5,00.0,38.9,31.9,08.0,0004.8,0013.48,0004.86,0004.40
2022-03-03 20:29:00,,0825.2,4.99,0.00,30.1,29.5,00.0,38.9,31.9,08.0,0014.3,0013.10,0004.90,0004.42
2022-03-03 20:30:00,,0825.1,5.02,0.00,30.1,29.5,00.0,38.9,31.9,08.0,0013.9,0012.93,0004.96,0004.46
2022-03-03 20:31:00,,0825.1,5.00,0.00,30.1,29.6,00.0,39.0,31.9,08.2,0013.7,0012.88,0004.99,0004.49
2022-03-03 20:32:00,,0825.0,5.00,0.00,30.2,29.6,00.0,39.0,31.9,08.3,0013.1,0013.25,0004.99,0004.51
2022-03-03 20:33:00,,0825.1,5.00,0.00,30.2,29.6,00.0,39.0,32.0,08.4,0011.3,0012.99,0005.01,0004.52
2022-03-03 20:34:00,,0825.1,5.01,0.00,30.2,29.6,00.0,39.0,32.0,08.3,-000.7,0013.01,0005.01,0004.54
2022-03-03 20:35:00,,0825.1,4.99,0.00,30.2,29.6,00.0,39.1,32.0,08.3,0011.5,0012.92,0004.99,0004.54
2022-03-03 20:36:00,,0825.0,5.00,0.00,30.3,29.7,00.0,39.1,32.0,08.4,0009.9,0012.43,0004.99,0004.54
2022-03-03 20:37:00,,0825.0,5.02,0.00,30.3,29.7,00.0,39.1,32.0,08.3,0008.0,0012.07,0004.95,0004.52
2022-03-03 20:38:00,,0825.0,5.00,0.00,30.3,29.7,00.0,39.1,32.1,08.4,0011.4,0011.58,0004.92,0004.48
2022-03-03 20:39:00,,0824.9,5.00,0.00,30.3,29.7,00.0,39.1,32.1,08.3,0011.2,0010.17,0004.84,0004.43
2022-03-03 20:40:00,,0824.9,5.01,0.00,30.3,29.7,00.0,39.2,32.1,08.2,0012.0,0009.98,0004.81,0004.41
2022-03-03 20:41:00,,0824.9,4.99,0.00,30.4,29.7,00.0,39.2,32.1,08.6,0009.0,0009.81,0004.77,0004.37
2022-03-03 20:42:00,,0824.9,5.01,0.00,30.4,29.8,00.0,39.2,32.1,08.6,0009.7,0009.74,0004.71,0004.34
2022-03-03 20:43:00,,0824.9,5.02,0.00,30.4,29.8,00.0,39.2,32.1,08.3,-000.6,0009.31,0004.68,0004.31
2022-03-03 20:44:00,,0824.9,4.99,0.00,30.4,29.8,00.0,39.2,32.1,08.3,0009.5,0009.52,0004.67,0004.30
2022-03-03 20:45:00,,0824.9,5.01,0.00,30.4,29.8,00.0,39.3,32.1,08.4,0002.4,0009.17,0004.67,0004.28
2022-03-03 20:46:00,,0824.9,5.01,0.00,30.4,29.8,00.0,39.3,32.2,08.2,-004.2,0008.86,0004.67,0004.26
2022-03-03 20:47:00,,0824.9,4.99,0.00,30.4,29.8,00.0,39.3,32.2,08.4,-003.8,0008.91,0004.67,0004.25
2022-03-03 20:48:00,,0824.9,5.02,0.00,30.4,29.8,00.0,39.3,32.2,08.3,-003.7,0009.15,0004.68,0004.26
2022-03-03 20:49:00,,0824.8,4.99,0.00,30.4,29.8,00.0,39.3,32.2,08.3,-002.7,0010.08,0004.72,0004.30
2022-03-03 20:50:00,,0824.8,5.00,0.00,30.5,29.8,00.0,39.3,32.2,08.3,-002.8,0011.38,0004.80,0004.34
2022-03-03 20:51:00,,0824.7,5.01,0.00,30.5,29.9,00.0,39.3,32.2,08.3,-002.6,0011.42,0004.83,0004.37
2022-03-03 20:52:00,,0824.9,5.00,0.00,30.5,29.9,00.0,39.3,32.2,08.3,-002.3,0011.52,0004.87,0004.41
2022-03-03 20:53:00,,0824.7,5.00,0.00,30.5,29.9,00.0,39.4,32.3,08.3,-002.0,0011.52,0004.88,0004.43
2022-03-03 20:54:00,,0824.6,5.02,0.00,30.5,29.9,00.0,39.4,32.3,08.2,-001.6,0011.96,0004.90,0004.44
2022-03-03 20:55:00,,0824.6,5.00,0.00,30.6,29.9,00.0,39.4,32.3,08.1,-001.3,0012.28,0004.93,0004.45
2022-03-03 20:56:00,,0824.7,4.99,0.00,30.6,30.0,00.0,39.4,32.3,08.1,-000.8,0012.16,0004.93,0004.46
2022-03-03 20:57:00,,0824.6,5.02,0.00,30.6,30.0,00.0,39.4,32.4,08.1,-000.4,0012.02,0004.92,0004.46
2022-03-03 20:58:00,,0824.6,5.01,0.00,30.6,30.1,00.0,39.4,32.4,08.2,-000.8,0012.60,0004.93,0004.45
2022-03-03 20:59:00,,0824.6,4.98,0.00,30.7,30.0,00.0,39.5,32.4,08.1,-001.2,0013.67,0004.99,0004.44
